| time (UTC) | temp F | wind direction | speed MPH | gust MPH | rain 1hr in | rain 24hr in | rain mn in | humidity % | barometer mb |
| 20260506172348 | 67 | 257 | 9.0 | 14.0 | 0.00 | 0.00 | 0.00 | 80 | 1005.6 |
| 20260506171558 | 67 | 211 | 6.0 | 0.0 | 0.00 | 0.00 | 0.00 | 80 | 1005.5 |
| 20260506171404 | 67 | 181 | 5.0 | 14.0 | 0.00 | 0.00 | 0.00 | 80 | 1005.6 |
| 20260506170355 | 68 | 194 | 6.0 | 14.0 | 0.00 | 0.00 | 0.00 | 79 | 1005.7 |
| 20260506170046 | 67 | 199 | 6.0 | 0.0 | 0.00 | 0.00 | 0.00 | 80 | 1005.6 |
| 20260506165346 | 67 | 180 | 6.0 | 11.0 | 0.00 | 0.00 | 0.00 | 81 | 1005.7 |
| 20260506164535 | 67 | 171 | 5.0 | 0.0 | 0.00 | 0.00 | 0.00 | 81 | 1005.6 |
| 20260506164413 | 67 | 177 | 5.0 | 12.0 | 0.00 | 0.00 | 0.00 | 81 | 1005.7 |
| 20260506163344 | 67 | 181 | 7.0 | 11.0 | 0.00 | 0.00 | 0.00 | 82 | 1006.2 |
| 20260506163111 | 67 | 177 | 5.0 | 0.0 | 0.00 | 0.00 | 0.00 | 82 | 1006.1 |
| 20260506162401 | 68 | 210 | 5.0 | 10.0 | 0.00 | 0.00 | 0.00 | 78 | 1006.6 |
| 20260506161505 | 68 | 192 | 5.0 | 0.0 | 0.00 | 0.00 | 0.00 | 76 | 1006.5 |
| 20260506161404 | 69 | 185 | 5.0 | 12.0 | 0.00 | 0.00 | 0.00 | 76 | 1006.6 |
| 20260506160406 | 70 | 175 | 7.0 | 13.0 | 0.00 | 0.00 | 0.00 | 73 | 1006.7 |
| 20260506160023 | 69 | 191 | 6.0 | 0.0 | 0.00 | 0.00 | 0.00 | 73 | 1006.6 |
| 20260506155342 | 70 | 192 | 5.0 | 13.0 | 0.00 | 0.00 | 0.00 | 73 | 1006.7 |
| 20260506154611 | 69 | 191 | 5.0 | 0.0 | 0.00 | 0.00 | 0.00 | 71 | 1006.6 |
| 20260506154404 | 70 | 145 | 5.0 | 13.0 | 0.00 | 0.00 | 0.00 | 71 | 1006.7 |
| 20260506153353 | 70 | 202 | 5.0 | 13.0 | 0.00 | 0.00 | 0.00 | 70 | 1006.6 |
| 20260506153043 | 69 | 177 | 6.0 | 0.0 | 0.00 | 0.00 | 0.00 | 70 | 1006.5 |
| 20260506152350 | 70 | 232 | 5.0 | 12.0 | 0.00 | 0.00 | 0.00 | 69 | 1006.8 |
| 20260506151515 | 69 | 182 | 6.0 | 0.0 | 0.00 | 0.00 | 0.00 | 69 | 1006.7 |
| 20260506151414 | 70 | 189 | 5.0 | 13.0 | 0.00 | 0.00 | 0.00 | 69 | 1006.8 |
| 20260506150352 | 70 | 194 | 7.0 | 13.0 | 0.00 | 0.00 | 0.00 | 69 | 1006.7 |
| 20260506150108 | 69 | 177 | 6.0 | 0.0 | 0.00 | 0.00 | 0.00 | 69 | 1006.6 |
| 20260506145350 | 70 | 182 | 6.0 | 12.0 | 0.00 | 0.00 | 0.00 | 69 | 1006.8 |
| 20260506144537 | 69 | 209 | 5.0 | 0.0 | 0.00 | 0.00 | 0.00 | 69 | 1006.7 |
| 20260506144350 | 69 | 184 | 5.0 | 10.0 | 0.00 | 0.00 | 0.00 | 69 | 1006.8 |
| 20260506143346 | 69 | 194 | 6.0 | 18.0 | 0.00 | 0.00 | 0.00 | 69 | 1006.7 |
| 20260506143025 | 68 | 178 | 6.0 | 0.0 | 0.00 | 0.00 | 0.00 | 69 | 1006.6 |
| 20260506142344 | 69 | 201 | 5.0 | 12.0 | 0.00 | 0.00 | 0.00 | 69 | 1006.7 |
| 20260506141555 | 69 | 174 | 5.0 | 0.0 | 0.00 | 0.00 | 0.00 | 68 | 1006.6 |
| 20260506141340 | 69 | 192 | 7.0 | 12.0 | 0.00 | 0.00 | 0.00 | 68 | 1006.7 |
| 20260506140354 | 70 | 156 | 9.0 | 17.0 | 0.00 | 0.00 | 0.00 | 67 | 1006.7 |
| 20260506140054 | 69 | 191 | 7.0 | 0.0 | 0.00 | 0.00 | 0.00 | 67 | 1006.6 |
| 20260506135344 | 69 | 212 | 5.0 | 12.0 | 0.00 | 0.00 | 0.00 | 68 | 1006.7 |
| 20260506134535 | 68 | 201 | 5.0 | 0.0 | 0.00 | 0.00 | 0.00 | 69 | 1006.6 |
| 20260506134341 | 69 | 178 | 3.0 | 10.0 | 0.00 | 0.00 | 0.00 | 69 | 1006.7 |
| 20260506133352 | 69 | 203 | 5.0 | 11.0 | 0.00 | 0.00 | 0.00 | 69 | 1006.7 |
| 20260506133036 | 68 | 183 | 5.0 | 0.0 | 0.00 | 0.00 | 0.00 | 69 | 1006.6 |
| 20260506132347 | 69 | 235 | 6.0 | 13.0 | 0.00 | 0.00 | 0.00 | 69 | 1006.7 |
| 20260506131509 | 68 | 155 | 6.0 | 0.0 | 0.00 | 0.00 | 0.00 | 68 | 1006.6 |
| 20260506131344 | 69 | 184 | 5.0 | 14.0 | 0.00 | 0.00 | 0.00 | 69 | 1006.7 |
| 20260506130357 | 69 | 173 | 4.0 | 14.0 | 0.00 | 0.00 | 0.00 | 69 | 1007.0 |
| 20260506130051 | 68 | 173 | 7.0 | 0.0 | 0.00 | 0.00 | 0.00 | 69 | 1006.9 |
| 20260506125353 | 69 | 177 | 6.0 | 15.0 | 0.00 | 0.00 | 0.00 | 69 | 1007.0 |
| 20260506124531 | 68 | 221 | 7.0 | 0.0 | 0.00 | 0.00 | 0.00 | 69 | 1006.9 |
| 20260506124350 | 69 | 210 | 6.0 | 13.0 | 0.00 | 0.00 | 0.00 | 70 | 1007.0 |
| 20260506123342 | 68 | 177 | 6.0 | 15.0 | 0.00 | 0.00 | 0.00 | 71 | 1007.0 |
| 20260506123019 | 68 | 182 | 6.0 | 0.0 | 0.00 | 0.00 | 0.00 | 71 | 1006.8 |
| 20260506122337 | 67 | 181 | 7.0 | 12.0 | 0.00 | 0.00 | 0.00 | 72 | 1007.0 |
| 20260506121501 | 67 | 213 | 6.0 | 0.0 | 0.00 | 0.00 | 0.00 | 73 | 1006.9 |
| 20260506121420 | 67 | 184 | 7.0 | 15.0 | 0.00 | 0.00 | 0.00 | 73 | 1007.0 |
| 20260506120353 | 66 | 168 | 5.0 | 13.0 | 0.00 | 0.00 | 0.00 | 75 | 1007.0 |
| 20260506120057 | 65 | 221 | 5.0 | 0.0 | 0.00 | 0.00 | 0.00 | 76 | 1006.9 |
| 20260506115352 | 66 | 180 | 6.0 | 14.0 | 0.00 | 0.00 | 0.00 | 75 | 1006.9 |
| 20260506114513 | 65 | 160 | 5.0 | 0.0 | 0.00 | 0.00 | 0.00 | 77 | 1006.8 |
| 20260506114353 | 66 | 182 | 5.0 | 11.0 | 0.00 | 0.00 | 0.00 | 76 | 1006.9 |
| 20260506113347 | 65 | 189 | 5.0 | 11.0 | 0.00 | 0.00 | 0.00 | 78 | 1006.8 |
| 20260506113013 | 64 | 195 | 4.0 | 0.0 | 0.00 | 0.00 | 0.00 | 78 | 1006.7 |
| 20260506112414 | 65 | 190 | 4.0 | 11.0 | 0.00 | 0.00 | 0.00 | 78 | 1007.0 |
| 20260506111544 | 64 | 175 | 4.0 | 0.0 | 0.00 | 0.00 | 0.00 | 79 | 1006.9 |
| 20260506111353 | 64 | 199 | 4.0 | 11.0 | 0.00 | 0.00 | 0.00 | 79 | 1007.0 |
| 20260506110350 | 64 | 168 | 3.0 | 10.0 | 0.00 | 0.00 | 0.00 | 80 | 1007.1 |
| 20260506110037 | 63 | 194 | 5.0 | 0.0 | 0.00 | 0.00 | 0.00 | 79 | 1007.0 |
| 20260506105347 | 63 | 154 | 5.0 | 9.0 | 0.00 | 0.00 | 0.00 | 80 | 1006.9 |
| 20260506104503 | 63 | 157 | 4.0 | 0.0 | 0.00 | 0.00 | 0.00 | 80 | 1006.7 |
| 20260506104347 | 63 | 179 | 5.0 | 12.0 | 0.00 | 0.00 | 0.00 | 80 | 1006.9 |
| 20260506103338 | 63 | 209 | 6.0 | 12.0 | 0.00 | 0.00 | 0.00 | 81 | 1006.9 |
| 20260506103104 | 62 | 183 | 4.0 | 0.0 | 0.00 | 0.00 | 0.00 | 81 | 1006.8 |
| 20260506102339 | 63 | 185 | 5.0 | 9.0 | 0.00 | 0.00 | 0.00 | 81 | 1007.0 |
| 20260506101546 | 62 | 171 | 4.0 | 0.0 | 0.00 | 0.00 | 0.00 | 82 | 1006.9 |
| 20260506101407 | 63 | 184 | 3.0 | 9.0 | 0.00 | 0.00 | 0.00 | 81 | 1007.0 |
| 20260506100407 | 63 | 175 | 5.0 | 12.0 | 0.00 | 0.00 | 0.00 | 82 | 1006.7 |
| 20260506100115 | 62 | 177 | 4.0 | 0.0 | 0.00 | 0.00 | 0.00 | 82 | 1006.6 |
| 20260506095343 | 63 | 168 | 4.0 | 12.0 | 0.00 | 0.00 | 0.00 | 82 | 1006.7 |
| 20260506094540 | 62 | 183 | 4.0 | 0.0 | 0.00 | 0.00 | 0.00 | 82 | 1006.6 |
| 20260506094340 | 63 | 166 | 5.0 | 10.0 | 0.00 | 0.00 | 0.00 | 82 | 1006.7 |
| 20260506093338 | 63 | 171 | 4.0 | 11.0 | 0.00 | 0.00 | 0.00 | 82 | 1006.7 |
| 20260506093039 | 63 | 184 | 4.0 | 0.0 | 0.00 | 0.00 | 0.00 | 82 | 1006.5 |
| 20260506092351 | 63 | 207 | 4.0 | 9.0 | 0.00 | 0.00 | 0.00 | 82 | 1006.6 |
| 20260506091554 | 63 | 176 | 5.0 | 0.0 | 0.00 | 0.00 | 0.00 | 82 | 1006.5 |
| 20260506091348 | 63 | 178 | 5.0 | 12.0 | 0.00 | 0.00 | 0.00 | 82 | 1006.6 |
| 20260506090408 | 63 | 194 | 4.0 | 10.0 | 0.00 | 0.00 | 0.00 | 82 | 1006.7 |
| 20260506090041 | 63 | 173 | 5.0 | 0.0 | 0.00 | 0.00 | 0.00 | 82 | 1006.6 |
| 20260506085345 | 63 | 176 | 4.0 | 10.0 | 0.00 | 0.00 | 0.00 | 82 | 1006.8 |
| 20260506084558 | 63 | 179 | 4.0 | 0.0 | 0.00 | 0.00 | 0.00 | 82 | 1006.7 |
| 20260506084342 | 63 | 177 | 3.0 | 11.0 | 0.00 | 0.00 | 0.00 | 82 | 1006.8 |
| 20260506083404 | 64 | 178 | 3.0 | 12.0 | 0.00 | 0.00 | 0.00 | 82 | 1007.1 |
| 20260506083103 | 63 | 176 | 5.0 | 0.0 | 0.00 | 0.00 | 0.00 | 82 | 1006.9 |
| 20260506082408 | 64 | 189 | 6.0 | 11.0 | 0.00 | 0.00 | 0.00 | 82 | 1007.2 |
| 20260506081536 | 63 | 183 | 5.0 | 0.0 | 0.00 | 0.00 | 0.00 | 82 | 1007.0 |
| 20260506081342 | 64 | 191 | 4.0 | 12.0 | 0.00 | 0.00 | 0.00 | 82 | 1007.2 |
| 20260506080354 | 64 | 210 | 4.0 | 12.0 | 0.00 | 0.00 | 0.00 | 82 | 1007.1 |
| 20260506073339 | 64 | 171 | 5.0 | 9.0 | 0.00 | 0.00 | 0.00 | 82 | 1006.9 |
| 20260506073100 | 64 | 194 | 4.0 | 0.0 | 0.00 | 0.00 | 0.00 | 82 | 1006.7 |
| 20260506072416 | 64 | 170 | 5.0 | 10.0 | 0.00 | 0.00 | 0.00 | 82 | 1007.1 |
| 20260506071517 | 64 | 189 | 4.0 | 0.0 | 0.00 | 0.00 | 0.00 | 82 | 1007.0 |
| 20260506071351 | 64 | 208 | 4.0 | 10.0 | 0.00 | 0.00 | 0.00 | 81 | 1007.1 |
| 20260506070412 | 65 | 170 | 4.0 | 11.0 | 0.00 | 0.00 | 0.00 | 81 | 1007.2 |
| 20260506062357 | 65 | 181 | 4.0 | 11.0 | 0.00 | 0.00 | 0.00 | 80 | 1007.2 |
| 20260506061520 | 65 | 173 | 5.0 | 0.0 | 0.00 | 0.00 | 0.00 | 80 | 1007.1 |
| 20260506061351 | 65 | 194 | 4.0 | 9.0 | 0.00 | 0.00 | 0.00 | 80 | 1007.2 |
| 20260506060346 | 65 | 168 | 4.0 | 12.0 | 0.00 | 0.00 | 0.00 | 80 | 1007.2 |
| 20260506051346 | 66 | 199 | 4.0 | 11.0 | 0.00 | 0.00 | 0.00 | 79 | 1007.8 |
| 20260506050409 | 66 | 210 | 4.0 | 9.0 | 0.00 | 0.00 | 0.00 | 79 | 1007.8 |
| 20260506044525 | 65 | 180 | 5.0 | 0.0 | 0.00 | 0.00 | 0.00 | 79 | 1007.6 |
| 20260506044343 | 66 | 174 | 4.0 | 13.0 | 0.00 | 0.00 | 0.00 | 79 | 1007.8 |
| 20260506043351 | 66 | 203 | 4.0 | 9.0 | 0.00 | 0.00 | 0.00 | 78 | 1007.8 |
| 20260506043029 | 66 | 173 | 5.0 | 0.0 | 0.00 | 0.00 | 0.00 | 78 | 1007.7 |
| 20260506042342 | 66 | 184 | 5.0 | 11.0 | 0.00 | 0.00 | 0.00 | 78 | 1007.8 |
| 20260506041610 | 66 | 200 | 5.0 | 0.0 | 0.00 | 0.00 | 0.00 | 78 | 1007.6 |
| 20260506041358 | 66 | 174 | 5.0 | 12.0 | 0.00 | 0.00 | 0.00 | 77 | 1007.8 |
| 20260506040352 | 66 | 163 | 4.0 | 13.0 | 0.00 | 0.00 | 0.00 | 77 | 1007.8 |
| 20260506040005 | 66 | 181 | 5.0 | 0.0 | 0.00 | 0.00 | 0.00 | 77 | 1007.7 |
| 20260506035348 | 66 | 226 | 6.0 | 11.0 | 0.00 | 0.00 | 0.00 | 77 | 1007.8 |
| 20260506034554 | 66 | 187 | 5.0 | 0.0 | 0.00 | 0.00 | 0.00 | 76 | 1007.6 |
| 20260506034414 | 66 | 173 | 4.0 | 9.0 | 0.00 | 0.00 | 0.00 | 76 | 1007.8 |
| 20260506033347 | 67 | 189 | 5.0 | 10.0 | 0.00 | 0.00 | 0.00 | 76 | 1007.8 |
| 20260506033034 | 66 | 203 | 5.0 | 0.0 | 0.00 | 0.00 | 0.00 | 75 | 1007.7 |
| 20260506032341 | 67 | 173 | 5.0 | 9.0 | 0.00 | 0.00 | 0.00 | 75 | 1007.9 |
| 20260506031508 | 66 | 183 | 5.0 | 0.0 | 0.00 | 0.00 | 0.00 | 75 | 1007.7 |
| 20260506031353 | 67 | 180 | 5.0 | 10.0 | 0.00 | 0.00 | 0.00 | 75 | 1007.9 |
| 20260506030414 | 67 | 178 | 5.0 | 13.0 | 0.00 | 0.00 | 0.00 | 74 | 1007.9 |
| 20260506030053 | 67 | 191 | 5.0 | 0.0 | 0.00 | 0.00 | 0.00 | 74 | 1007.8 |
| 20260506025416 | 67 | 196 | 5.0 | 11.0 | 0.00 | 0.00 | 0.00 | 74 | 1008.1 |
| 20260506024505 | 67 | 176 | 6.0 | 0.0 | 0.00 | 0.00 | 0.00 | 73 | 1007.9 |
| 20260506024348 | 67 | 192 | 6.0 | 13.0 | 0.00 | 0.00 | 0.00 | 73 | 1008.1 |
| 20260506023344 | 68 | 201 | 4.0 | 13.0 | 0.00 | 0.00 | 0.00 | 72 | 1007.9 |
| 20260506023009 | 67 | 187 | 5.0 | 0.0 | 0.00 | 0.00 | 0.00 | 72 | 1007.8 |
| 20260506022338 | 68 | 173 | 5.0 | 9.0 | 0.00 | 0.00 | 0.00 | 71 | 1007.9 |
| 20260506021612 | 68 | 180 | 5.0 | 0.0 | 0.00 | 0.00 | 0.00 | 71 | 1007.8 |
| 20260506021337 | 68 | 187 | 5.0 | 9.0 | 0.00 | 0.00 | 0.00 | 70 | 1007.9 |
| 20260506020354 | 68 | 180 | 4.0 | 7.0 | 0.00 | 0.00 | 0.00 | 69 | 1007.8 |
| 20260506015348 | 69 | 175 | 4.0 | 14.0 | 0.00 | 0.00 | 0.00 | 68 | 1007.7 |
| 20260506014530 | 69 | 208 | 5.0 | 0.0 | 0.00 | 0.00 | 0.00 | 68 | 1007.6 |
| 20260506014402 | 69 | 199 | 4.0 | 12.0 | 0.00 | 0.00 | 0.00 | 67 | 1007.7 |
| 20260506013340 | 70 | 202 | 5.0 | 10.0 | 0.00 | 0.00 | 0.00 | 66 | 1007.6 |
| 20260506013013 | 69 | 178 | 5.0 | 0.0 | 0.00 | 0.00 | 0.00 | 66 | 1007.5 |
| 20260506012337 | 70 | 156 | 5.0 | 11.0 | 0.00 | 0.00 | 0.00 | 65 | 1007.4 |
| 20260506011615 | 69 | 174 | 5.0 | 0.0 | 0.00 | 0.00 | 0.00 | 65 | 1007.2 |
| 20260506011338 | 70 | 191 | 6.0 | 12.0 | 0.00 | 0.00 | 0.00 | 65 | 1007.4 |
| 20260506010337 | 70 | 179 | 5.0 | 9.0 | 0.00 | 0.00 | 0.00 | 65 | 1007.3 |
| 20260506010100 | 70 | 180 | 4.0 | 0.0 | 0.00 | 0.00 | 0.00 | 65 | 1007.1 |
| 20260506005357 | 70 | 210 | 5.0 | 13.0 | 0.00 | 0.00 | 0.00 | 65 | 1007.2 |
| 20260506004538 | 70 | 167 | 4.0 | 0.0 | 0.00 | 0.00 | 0.00 | 65 | 1007.1 |
| 20260506004355 | 70 | 203 | 3.0 | 7.0 | 0.00 | 0.00 | 0.00 | 65 | 1007.2 |
| 20260506003353 | 70 | 163 | 3.0 | 11.0 | 0.00 | 0.00 | 0.00 | 65 | 1006.8 |
| 20260506003034 | 70 | 222 | 4.0 | 0.0 | 0.00 | 0.00 | 0.00 | 64 | 1006.7 |
| 20260506002350 | 71 | 168 | 4.0 | 11.0 | 0.00 | 0.00 | 0.00 | 64 | 1006.8 |
| 20260506001503 | 71 | 182 | 5.0 | 0.0 | 0.00 | 0.00 | 0.00 | 64 | 1006.7 |
| 20260506001347 | 71 | 170 | 4.0 | 12.0 | 0.00 | 0.00 | 0.00 | 64 | 1006.8 |
| 20260506000409 | 72 | 208 | 4.0 | 7.0 | 0.00 | 0.00 | 0.00 | 63 | 1006.8 |
| 20260506000049 | 71 | 203 | 4.0 | 0.0 | 0.00 | 0.00 | 0.00 | 62 | 1006.7 |
| 20260505235411 | 73 | 169 | 4.0 | 14.0 | 0.00 | 0.00 | 0.00 | 61 | 1006.7 |
| 20260505234600 | 73 | 168 | 4.0 | 0.0 | 0.00 | 0.00 | 0.00 | 59 | 1006.6 |
| 20260505234349 | 73 | 187 | 4.0 | 11.0 | 0.00 | 0.00 | 0.00 | 59 | 1006.7 |
| 20260505233347 | 74 | 161 | 2.0 | 11.0 | 0.00 | 0.00 | 0.00 | 56 | 1006.5 |
| 20260505233105 | 74 | 177 | 4.0 | 0.0 | 0.00 | 0.00 | 0.00 | 55 | 1006.4 |
| 20260505232344 | 75 | 199 | 6.0 | 10.0 | 0.00 | 0.00 | 0.00 | 54 | 1006.6 |
| 20260505231549 | 75 | 178 | 4.0 | 0.0 | 0.00 | 0.00 | 0.00 | 52 | 1006.4 |
| 20260505231343 | 76 | 199 | 5.0 | 11.0 | 0.00 | 0.00 | 0.00 | 52 | 1006.6 |
| 20260505230404 | 77 | 173 | 5.0 | 10.0 | 0.00 | 0.00 | 0.00 | 49 | 1006.3 |
| 20260505230020 | 77 | 181 | 5.0 | 0.0 | 0.00 | 0.00 | 0.00 | 48 | 1006.2 |
| 20260505225359 | 78 | 173 | 5.0 | 11.0 | 0.00 | 0.00 | 0.00 | 47 | 1006.2 |
| 20260505224520 | 78 | 197 | 5.0 | 0.0 | 0.00 | 0.00 | 0.00 | 44 | 1006.1 |
| 20260505224337 | 79 | 184 | 5.0 | 13.0 | 0.00 | 0.00 | 0.00 | 44 | 1006.3 |
| 20260505223349 | 79 | 227 | 5.0 | 13.0 | 0.00 | 0.00 | 0.00 | 44 | 1006.2 |
| 20260505223031 | 78 | 204 | 6.0 | 0.0 | 0.00 | 0.00 | 0.00 | 44 | 1006.1 |
| 20260505222344 | 80 | 189 | 8.0 | 13.0 | 0.00 | 0.00 | 0.00 | 43 | 1006.2 |
| 20260505221502 | 80 | 179 | 7.0 | 0.0 | 0.00 | 0.00 | 0.00 | 43 | 1006.1 |
| 20260505221400 | 80 | 177 | 6.0 | 14.0 | 0.00 | 0.00 | 0.00 | 44 | 1006.2 |
| 20260505220351 | 81 | 180 | 9.0 | 16.0 | 0.00 | 0.00 | 0.00 | 44 | 1006.2 |
| 20260505220057 | 80 | 184 | 7.0 | 0.0 | 0.00 | 0.00 | 0.00 | 43 | 1006.1 |
| 20260505215344 | 81 | 202 | 9.0 | 17.0 | 0.00 | 0.00 | 0.00 | 43 | 1006.2 |
| 20260505214527 | 81 | 189 | 7.0 | 0.0 | 0.00 | 0.00 | 0.00 | 43 | 1006.0 |
| 20260505214401 | 81 | 199 | 6.0 | 15.0 | 0.00 | 0.00 | 0.00 | 42 | 1006.2 |
| 20260505213349 | 82 | 208 | 4.0 | 14.0 | 0.00 | 0.00 | 0.00 | 41 | 1005.9 |
| 20260505213103 | 81 | 170 | 6.0 | 0.0 | 0.00 | 0.00 | 0.00 | 41 | 1005.8 |
| 20260505212343 | 82 | 174 | 8.0 | 14.0 | 0.00 | 0.00 | 0.00 | 40 | 1005.8 |
| 20260505211548 | 82 | 213 | 7.0 | 0.0 | 0.00 | 0.00 | 0.00 | 39 | 1005.7 |
| 20260505211343 | 83 | 187 | 8.0 | 17.0 | 0.00 | 0.00 | 0.00 | 39 | 1005.8 |
| 20260505210354 | 83 | 116 | 7.0 | 16.0 | 0.00 | 0.00 | 0.00 | 40 | 1005.7 |
| 20260505210050 | 83 | 134 | 7.0 | 0.0 | 0.00 | 0.00 | 0.00 | 39 | 1005.6 |
| 20260505205347 | 83 | 180 | 7.0 | 15.0 | 0.00 | 0.00 | 0.00 | 39 | 1005.7 |
| 20260505204529 | 83 | 191 | 7.0 | 0.0 | 0.00 | 0.00 | 0.00 | 38 | 1005.6 |
| 20260505204345 | 84 | 180 | 8.0 | 15.0 | 0.00 | 0.00 | 0.00 | 38 | 1005.7 |
| 20260505203343 | 84 | 179 | 7.0 | 16.0 | 0.00 | 0.00 | 0.00 | 37 | 1005.7 |
| 20260505203053 | 84 | 170 | 7.0 | 0.0 | 0.00 | 0.00 | 0.00 | 37 | 1005.5 |
| 20260505202342 | 85 | 171 | 6.0 | 16.0 | 0.00 | 0.00 | 0.00 | 38 | 1005.7 |
| 20260505201512 | 84 | 179 | 7.0 | 0.0 | 0.00 | 0.00 | 0.00 | 38 | 1005.6 |
| 20260505201358 | 84 | 177 | 7.0 | 16.0 | 0.00 | 0.00 | 0.00 | 39 | 1005.7 |
| 20260505200351 | 84 | 234 | 6.0 | 15.0 | 0.00 | 0.00 | 0.00 | 40 | 1005.7 |
| 20260505200010 | 84 | 182 | 7.0 | 0.0 | 0.00 | 0.00 | 0.00 | 38 | 1005.6 |
| 20260505195415 | 84 | 204 | 7.0 | 14.0 | 0.00 | 0.00 | 0.00 | 38 | 1005.9 |
| 20260505194530 | 84 | 178 | 7.0 | 0.0 | 0.00 | 0.00 | 0.00 | 38 | 1005.7 |
| 20260505194351 | 84 | 168 | 8.0 | 17.0 | 0.00 | 0.00 | 0.00 | 39 | 1005.9 |
| 20260505193406 | 84 | 156 | 8.0 | 19.0 | 0.00 | 0.00 | 0.00 | 40 | 1006.1 |
| 20260505193000 | 84 | 163 | 8.0 | 0.0 | 0.00 | 0.00 | 0.00 | 40 | 1006.0 |
| 20260505192357 | 84 | 190 | 8.0 | 15.0 | 0.00 | 0.00 | 0.00 | 40 | 1006.2 |
| 20260505191541 | 84 | 208 | 7.0 | 0.0 | 0.00 | 0.00 | 0.00 | 42 | 1006.1 |
| 20260505191352 | 84 | 194 | 9.0 | 16.0 | 0.00 | 0.00 | 0.00 | 41 | 1006.2 |
| 20260505190347 | 84 | 187 | 6.0 | 14.0 | 0.00 | 0.00 | 0.00 | 41 | 1006.6 |
| 20260505190044 | 84 | 173 | 6.0 | 0.0 | 0.00 | 0.00 | 0.00 | 41 | 1006.4 |
| 20260505185342 | 84 | 239 | 5.0 | 12.0 | 0.00 | 0.00 | 0.00 | 42 | 1006.7 |
| 20260505184508 | 83 | 213 | 6.0 | 0.0 | 0.00 | 0.00 | 0.00 | 42 | 1006.6 |
| 20260505184340 | 84 | 193 | 9.0 | 15.0 | 0.00 | 0.00 | 0.00 | 43 | 1006.7 |
| 20260505183356 | 83 | 179 | 5.0 | 11.0 | 0.00 | 0.00 | 0.00 | 45 | 1006.7 |
| 20260505183008 | 83 | 173 | 6.0 | 0.0 | 0.00 | 0.00 | 0.00 | 44 | 1006.6 |
| 20260505182352 | 84 | 193 | 3.0 | 13.0 | 0.00 | 0.00 | 0.00 | 46 | 1006.8 |
| 20260505181547 | 83 | 182 | 6.0 | 0.0 | 0.00 | 0.00 | 0.00 | 43 | 1006.7 |
| 20260505181351 | 84 | 178 | 5.0 | 16.0 | 0.00 | 0.00 | 0.00 | 43 | 1006.8 |
| 20260505180347 | 83 | 158 | 4.0 | 11.0 | 0.00 | 0.00 | 0.00 | 45 | 1007.2 |
| 20260505180041 | 82 | 214 | 6.0 | 0.0 | 0.00 | 0.00 | 0.00 | 46 | 1007.1 |
| 20260505175343 | 83 | 229 | 7.0 | 13.0 | 0.00 | 0.00 | 0.00 | 44 | 1007.3 |
| 20260505174528 | 82 | 182 | 5.0 | 0.0 | 0.00 | 0.00 | 0.00 | 44 | 1007.2 |
| 20260505174405 | 83 | 178 | 4.0 | 11.0 | 0.00 | 0.00 | 0.00 | 44 | 1007.3 |
| 20260505173400 | 82 | 175 | 5.0 | 12.0 | 0.00 | 0.00 | 0.00 | 45 | 1007.4 |
| 20260505173022 | 82 | 196 | 6.0 | 0.0 | 0.00 | 0.00 | 0.00 | 46 | 1007.2 |